Weather History for Bennington, VT

Change the Weather History Date:

Tuesday, July 17, 2012

  Actual Average Record
Temperature  
Mean Temperature 79 °F 68 °F  
Max Temperature 94 °F 80 °F 94 °F (2012)
Min Temperature 64 °F 57 °F 50 °F (2014)
Degree Days  
Heating Degree Days 0 1  
Month to date heating degree days 1 17  
Since 1 June heating degree days 86 114  
Since 1 July heating degree days 1 17  
Cooling Degree Days 14 4  
Month to date cooling degree days 111 67  
Year to date cooling degree days 224 139  
Since 1 June cooling degree days 176 125  
Growing Degree Days 28 (Base 50)    
Moisture  
Dew Point 66 °F    
Average Humidity 71    
Maximum Humidity 100    
Minimum Humidity 41    
Precipitation  
Precipitation 0.15 in 0.12 in 0.18 in (2001)
Month to date precipitation 1.05 2.32  
Year to date precipitation 15.07 21.52  
Sea Level Pressure  
Sea Level Pressure 29.78 in    
Wind  
Wind Speed 3 mph (SW)    
Max Wind Speed 12 mph    
Max Gust Speed 16 mph    
Visibility 6 miles    
Events Fog , Rain , Thunderstorm    
T = Trace of Precipitation, MM = Missing Value Source: NWS Daily Summary

Daily Weather History Graph

Daily Weather History Graph

Search for Another Location

Airport:

Trip Planner

Search our weather history database for the weather conditions in past years. The results will help you decide how hot, cold, wet, or windy it might be!

Date:

Astronomy

Jul. 17, 2012 Rise Set
Actual Time 5:29 AM EDT 8:27 PM EDT
Civil Twilight 4:56 AM EDT 9:01 PM EDT
Nautical Twilight 4:13 AM EDT 9:44 PM EDT
Astronomical Twilight 3:22 AM EDT 10:34 PM EDT
Moon 4:04 AM EDT (7/17) 7:15 PM EDT (7/17)
Length of Visible Light 16h 05m
Length of Day
14h 58m
Waning Crescent, 2% of the Moon is Illuminated
Jul 17
Waning Crescent
Jul 19
New
Jul 26
First Quarter
Aug 1
Full
Aug 9
Last Quarter

Hourly Weather History & Observations

Time (EDT) Temp. Heat Index Dew Point Humidity Pressure Visibility Wind Dir Wind Speed Gust Speed Precip Events Conditions
12:08 AM 68.0 °F - 66.2 °F 94% 29.84 in 1.0 mi Calm Calm - N/A   Clear
12:14 AM 68.0 °F - 66.2 °F 94% 29.84 in 3.0 mi Calm Calm - N/A   Clear
12:54 AM 66.9 °F - 66.0 °F 97% 29.83 in 7.0 mi South 3.5 mph - N/A   Clear
1:54 AM 66.9 °F - 64.9 °F 93% 29.83 in 4.0 mi Calm Calm - N/A   Mostly Cloudy
2:54 AM 66.9 °F - 64.9 °F 93% 29.82 in 3.0 mi Calm Calm - N/A   Clear
3:20 AM 66.2 °F - 64.4 °F 94% 29.84 in 2.5 mi Calm Calm - N/A   Clear
3:29 AM 66.2 °F - 64.4 °F 94% 29.83 in 4.0 mi Calm Calm - N/A   Clear
3:54 AM 66.0 °F - 64.9 °F 96% 29.81 in 5.0 mi Calm Calm - N/A   Clear
4:54 AM 66.0 °F - 64.9 °F 96% 29.81 in 3.0 mi Calm Calm - 0.01 in   Clear
5:06 AM 66.2 °F - 64.4 °F 94% 29.83 in 2.0 mi Calm Calm - N/A   Clear
5:36 AM 64.4 °F - 64.4 °F 100% 29.83 in 1.0 mi Calm Calm - N/A   Clear
5:47 AM 64.4 °F - 64.4 °F 100% 29.82 in 0.5 mi Calm Calm - N/A Fog Fog
5:54 AM 64.9 °F - 64.0 °F 97% 29.81 in 0.2 mi Calm Calm - N/A Fog Fog
6:01 AM 64.4 °F - 62.6 °F 94% 29.82 in 0.5 mi Calm Calm - N/A Fog Fog
6:05 AM 64.4 °F - 62.6 °F 94% 29.82 in 2.5 mi Calm Calm - N/A   Clear
6:14 AM 64.4 °F - 64.4 °F 100% 29.82 in 3.0 mi Calm Calm - N/A   Clear
6:54 AM 68.0 °F - 66.0 °F 93% 29.80 in 4.0 mi Calm Calm - N/A   Clear
7:54 AM 72.0 °F - 66.9 °F 84% 29.80 in 8.0 mi Calm Calm - N/A   Clear
8:54 AM 79.0 °F - 68.0 °F 69% 29.79 in 10.0 mi Calm Calm - N/A   Clear
9:54 AM 84.0 °F 86.3 °F 66.0 °F 55% 29.78 in 10.0 mi Calm Calm - N/A   Clear
10:54 AM 82.9 °F 84.6 °F 64.9 °F 54% 29.76 in 9.0 mi Calm Calm - 0.00 in Rain Light Rain
11:54 AM 87.1 °F 88.3 °F 64.0 °F 46% 29.74 in 10.0 mi SSW 8.1 mph - 0.00 in   Partly Cloudy
12:54 PM 89.1 °F 90.3 °F 64.0 °F 43% 29.73 in 10.0 mi SW 9.2 mph - N/A   Clear
1:54 PM 91.0 °F 93.0 °F 64.9 °F 42% 29.71 in 10.0 mi WSW 9.2 mph - N/A   Clear
2:54 PM 91.9 °F 94.5 °F 66.0 °F 42% 29.68 in 10.0 mi SSW 11.5 mph 16.1 mph N/A   Clear
3:54 PM 93.0 °F 95.9 °F 66.0 °F 41% 29.66 in 10.0 mi SW 5.8 mph 16.1 mph N/A   Partly Cloudy
4:54 PM 93.0 °F 96.4 °F 66.9 °F 42% 29.67 in 10.0 mi SW 8.1 mph - N/A   Partly Cloudy
5:54 PM 91.0 °F 95.2 °F 68.0 °F 47% 29.67 in 10.0 mi Variable 5.8 mph - N/A   Clear
6:54 PM 89.1 °F 92.1 °F 66.9 °F 48% 29.67 in 10.0 mi SW 4.6 mph - N/A   Clear
7:54 PM 87.1 °F 90.6 °F 68.0 °F 53% 29.68 in 10.0 mi SW 4.6 mph - N/A   Scattered Clouds
9:54 PM 84.9 °F 87.1 °F 66.0 °F 53% 29.72 in 10.0 mi North 8.1 mph - N/A   Overcast
10:54 PM 79.0 °F - 68.0 °F 69% 29.73 in 10.0 mi Calm Calm - 0.00 in Rain , Thunderstorm Light Rain
11:13 PM 78.8 °F - 66.2 °F 65% 29.81 in 2.0 mi West 6.9 mph - 0.10 in Rain Light Rain
11:20 PM 75.2 °F - 69.8 °F 83% 29.80 in 1.5 mi Calm Calm - 0.10 in Rain , Thunderstorm Light Rain
11:23 PM 73.4 °F - 69.8 °F 88% 29.81 in 4.0 mi Calm Calm - 0.10 in Rain , Thunderstorm Light Rain
11:43 PM 73.4 °F - 69.8 °F 88% 29.80 in 10.0 mi South 4.6 mph - 0.12 in Thunderstorm Scattered Clouds
11:54 PM 73.0 °F - 71.1 °F 93% 29.79 in 9.0 mi SSW 3.5 mph - 0.12 in Thunderstorm Mostly Cloudy